[[{"header":{"parameterUnit":"m.s-1","parameterCategory":1,"la1":30.2991,"la2":30.254,"lo1":-89.0895,"lo2":-89.0444,"dy":0.0017,"dx":0.0017,"nx":28,"ny":28,"refTime":"2024-04-25T03:00:00:Z","depth":0,"parameterNumber":2,"parameterNumberName":"U-component_of_WINDS"},"data":[0,0,0,0,0,0,0,0,0,0,0,0,0,0,0,0,0,0,0,0,0,0,0,0,0,0,0,0,0,0,0,0,0,0,0,0,0,0,0,0,0,0,0,0,0,0,0,0,0,0,0,0,0,0,0,0,0,0,-4.8401,-4.8402,0,-4.8527,-4.8528,-4.853,-4.8533,-4.8531,-4.853,-4.8528,-4.8656,-4.866,-4.8665,0,0,0,0,0,0,0,0,0,0,0,0,0,-4.8161,-4.8165,-4.8401,-4.8402,-4.8404,-4.8527,-4.8528,-4.853,-4.8533,-4.8531,-4.853,-4.8528,-4.8654,-4.866,-4.8666,0,0,0,0,0,0,0,0,0,0,0,0,0,-4.8274,-4.8167,-4.84,-4.842,-4.8423,-4.8526,-4.8528,-4.8531,-4.8534,-4.8531,-4.8529,-4.8527,-4.8652,-4.8659,-4.8667,-4.8758,0,0,-4.8689,-4.8692,0,0,0,0,0,0,0,0,-4.8267,-4.8283,-4.8416,-4.8419,-4.8423,-4.8512,-4.8491,-4.8607,-4.8534,-4.8492,-4.8528,-4.8526,-4.861,-4.862,-4.8649,-4.8764,-4.8769,-4.8689,-4.8694,-4.8697,-4.8699,0,0,0,0,0,0,0,-4.826,-4.8277,-4.845,-4.8418,-4.8422,-4.8422,-4.8436,-4.8513,-4.8562,-4.8495,-4.8496,-4.8511,-4.8611,-4.8642,-4.8652,-4.8771,-4.8689,-4.8696,-4.87,-4.8703,-4.8966,-4.8969,0,0,0,0,0,0,-4.8248,-4.8271,-4.8446,-4.8454,-4.8338,-4.8429,-4.8444,-4.8486,-4.8561,-4.8571,-4.8513,-4.851,-4.8631,-4.8644,-4.8656,-4.8767,-4.8697,-4.8704,-4.8708,-4.8964,-4.8967,-4.897,0,0,0,0,0,0,-4.8243,-4.8264,-4.8441,-4.8363,-4.8385,-4.8435,-4.8482,-4.8489,-4.852,-4.8574,-4.8583,-4.8535,-4.8629,-4.8646,-4.8733,-4.8772,-4.8707,-4.8713,-4.8961,-4.8965,-4.8968,-4.899,0,0,0,0,0,0,-4.8236,-4.8262,-4.8297,-4.8364,-4.839,-4.8516,-4.8485,-4.8493,-4.8533,-4.8531,-4.8598,-4.8607,-4.8629,-4.8722,-4.874,-4.878,-4.8719,-4.8957,-4.8962,-4.8967,-4.8986,-4.8994,-4.9001,0,0,0,0,0,-4.8227,-4.8298,-4.8299,-4.832,-4.8435,-4.8518,-4.8533,-4.8557,-4.8536,-4.8572,-4.8607,-4.8605,-4.8765,-4.873,-4.8751,-4.8794,-4.8955,-4.8961,-4.8967,-4.8982,-4.8993,-4.9001,0,0,0,0,0,0,-4.8234,-4.8307,-4.8309,-4.8403,-4.8454,-4.8518,-4.8564,-4.8567,-4.8625,-4.8621,-4.8649,-4.8664,-4.875,-4.8781,-4.8741,-4.8886,-4.8857,-4.8868,-4.8862,-4.8872,-4.888,-4.8869,-4.8725,0,0,0,0,0,-4.8247,-4.8309,-4.8369,-4.8446,-4.8472,-4.8514,-4.8551,-4.8566,-4.8619,-4.8641,-4.8682,-4.8734,-4.8796,-4.8836,-4.8897,-4.8991,-4.9005,-4.9031,-4.9039,-4.9045,-4.9053,-4.9104,-4.9116,-4.8989,-4.8989,-4.8989,0,0,-4.8273,-4.832,-4.8358,-4.8449,-4.849,-4.8553,-4.8532,-4.8599,-4.8646,-4.8651,-4.8734,-4.8767,-4.8827,-4.8917,-4.8959,-4.8946,-4.9092,-4.9053,-4.9057,-4.9062,-4.9112,-4.9124,-4.9134,-4.8993,-4.8993,-4.8992,0,0,-4.8352,-4.8395,-4.8464,-4.8506,-4.857,-4.8597,-4.8614,-4.8678,-4.8699,-4.8784,-4.8789,-4.8845,-4.8952,-4.8994,-4.9029,-4.9126,-4.9126,-4.9145,-4.9184,-4.9234,-4.9244,-4.9253,-4.9286,-4.9298,-4.9153,-4.9154,-4.9154,0,-4.8376,-4.8472,-4.8498,-4.8566,-4.8605,-4.8615,-4.8684,-4.8724,-4.8803,-4.883,-4.8815,-4.8949,-4.899,-4.909,-4.9113,-4.9142,-4.9161,-4.9136,-4.9241,-4.925,-4.9259,-4.929,-4.9303,-4.9155,-4.9155,-4.9155,-4.9155,0,-4.8498,-4.8564,-4.8612,-4.8689,-4.8734,-4.8802,-4.8839,-4.8881,-4.8893,-4.8922,-4.9008,-4.9058,-4.9128,-4.9153,-4.9165,-4.9255,-4.9245,-4.9235,-4.9206,-4.9272,-4.9302,-4.9315,-4.9158,-4.9157,-4.9157,-4.9156,0,0,-4.8583,-4.8675,-4.8692,-4.8726,-4.8798,-4.8849,-4.8918,-4.8987,-4.9022,-4.9078,-4.9135,-4.9226,-4.9217,-4.9257,-4.9274,-4.9318,-4.939,-4.9303,-4.9305,-4.9315,-4.9491,-4.9496,-4.9509,-4.9391,-4.9394,-4.9396,-4.9485,0,-4.8668,-4.8791,-4.8817,-4.8922,-4.8983,-4.8993,-4.9053,-4.9103,-4.9132,-4.9187,-4.922,-4.9283,-4.9268,-4.9292,-4.9336,-4.9371,-4.9425,-4.9366,-4.9443,-4.9445,-4.9425,-4.9525,-4.9531,-4.9613,-4.9497,-4.9499,-4.9501,0,-4.8784,-4.8842,-4.8953,-4.9017,-4.9043,-4.9096,-4.9162,-4.9215,-4.9272,-4.929,-4.9336,-4.9348,-4.9419,-4.9388,-4.9486,-4.9445,-4.9479,-4.9501,-4.9505,-4.9511,-4.9475,-4.9532,-4.964,-4.9651,-4.952,-4.9518,-4.9517,0,-4.8833,-4.8939,-4.9019,-4.9049,-4.9125,-4.9162,-4.9195,-4.925,-4.929,-4.9348,-4.9373,-4.9439,-4.9474,-4.9523,-4.9552,-4.9528,-4.9647,-4.9619,-4.9663,-4.9662,-4.9686,-4.9683,-4.9798,-4.9711,-4.9711,-4.9711,-4.9711,0,-4.8924,-4.8992,-4.9042,-4.9091,-4.9166,-4.9197,-4.927,-4.9304,-4.9352,-4.9407,-4.9421,-4.9472,-4.9509,-4.9565,-4.9589,-4.9665,-4.9681,-4.9697,-4.9702,-4.9695,-4.9692,-4.9715,-4.9709,-4.9714,-4.9713,-4.9713,-4.9712,0,-4.899,-4.9027,-4.9115,-4.918,-4.9198,-4.9251,-4.9306,-4.9354,-4.9384,-4.9454,-4.9472,-4.9519,-4.9586,-4.9621,-4.9705,-4.972,-4.9806,-4.9809,-4.9786,-4.9788,-4.9829,-4.9824,-4.996,-4.9979,-4.9882,-4.9883,-4.9883,0,-4.9045,-4.9097,-4.9168,-4.9206,-4.9241,-4.9302,-4.9343,-4.9375,-4.9417,-4.9486,-4.9525,-4.9593,-4.9649,-4.9756,-4.9797,-4.9861,-4.9864,-4.9908,-4.9874,-4.9864,-4.9862,-4.9858,-4.9863,-4.9913,-4.9914,-4.9914,-4.9915,0,-4.9139,-4.9154,-4.9213,-4.9279,-4.9327,-4.938,-4.9432,-4.9463,-4.9503,-4.955,-4.9619,-4.9662,-4.9748,-4.9815,-4.9882,-4.9916,-4.9922,-4.9926,-4.9939,-4.9931,-4.9915,-4.9922,-4.98,-4.9922,-4.9921,-4.9921,-4.992,-4.992,-4.92,-4.9246,-4.9303,-4.9368,-4.9411,-4.9459,-4.9507,-4.9544,-4.9602,-4.9674,-4.969,-4.9763,-4.9818,-4.9909,-4.9945,-5.0002,-4.9993,-5.0012,-5.0017,-5.0021,-5.0021,-4.9908,-5.0015,-5.0015,-5.0014,-5.0014,-5.0014,0,-4.9292,-4.9329,-4.9389,-4.9462,-4.9513,-4.9516,-4.9574,-4.9616,-4.968,-4.9731,-4.9786,-4.9865,-4.993,-4.9977,-5.0043,-5.008,-5.0084,-5.0096,-5.0092,-5.0099,-5.0027,-5.0008,-5.0091,-5.0091,-5.0091,-5.0091,-5.0091,-5.0091,-4.9346,-4.9424,-4.9446,-4.9546,-4.9583,-4.9654,-4.9687,-4.9732,-4.9773,-4.986,-4.9915,-4.9945,-4.9995,-5.0065,-5.0124,-5.0137,-5.0159,-5.0171,-5.0182,-5.0113,-5.0105,-5.0097,-5.0079,-5.0176,-5.0176,-5.025,-5.0251,-5.0251]},{"header":{"parameterUnit":"m.s-1","parameterCategory":1,"la1":30.2991,"la2":30.254,"lo1":-89.0895,"lo2":-89.0444,"dy":0.0017,"dx":0.0017,"nx":28,"ny":28,"refTime":"2024-04-25T03:00:00:Z","depth":0,"parameterNumber":3,"parameterNumberName":"V-component_of_WINDS"},"data":[0,0,0,0,0,0,0,0,0,0,0,0,0,0,0,0,0,0,0,0,0,0,0,0,0,0,0,0,0,0,0,0,0,0,0,0,0,0,0,0,0,0,0,0,0,0,0,0,0,0,0,0,0,0,0,0,0,0,5.2443,5.2441,0,5.2297,5.2295,5.2293,5.2193,5.2192,5.2192,5.2191,5.2034,5.2031,5.2027,0,0,0,0,0,0,0,0,0,0,0,0,0,5.2629,5.2626,5.2443,5.2441,5.2439,5.2297,5.2295,5.2293,5.2193,5.2192,5.2192,5.2191,5.2035,5.2031,5.2027,0,0,0,0,0,0,0,0,0,0,0,0,0,5.2522,5.2625,5.2443,5.2372,5.2365,5.2297,5.2295,5.2292,5.2194,5.2192,5.2191,5.219,5.2037,5.2031,5.2026,5.2015,0,0,5.201,5.2008,0,0,0,0,0,0,0,0,5.2528,5.2515,5.2385,5.2377,5.2368,5.2262,5.2303,5.2199,5.2194,5.2258,5.2191,5.219,5.211,5.2099,5.2074,5.2008,5.2001,5.201,5.2006,5.2004,5.2003,0,0,0,0,0,0,0,5.2536,5.2521,5.2385,5.2383,5.2373,5.2346,5.233,5.2283,5.2192,5.2253,5.2245,5.223,5.2106,5.2079,5.2069,5.1999,5.201,5.2005,5.2002,5.2,5.1917,5.1918,0,0,0,0,0,0,5.2555,5.2528,5.2389,5.238,5.2448,5.2344,5.2325,5.2297,5.2192,5.2175,5.2231,5.2225,5.2089,5.2075,5.2063,5.2043,5.2004,5.1999,5.1996,5.1916,5.1917,5.1918,0,0,0,0,0,0,5.2559,5.2544,5.2395,5.2452,5.2431,5.2342,5.2311,5.2295,5.2268,5.2176,5.2158,5.2221,5.2087,5.2071,5.2029,5.2037,5.1997,5.1992,5.1915,5.1916,5.1918,5.2004,0,0,0,0,0,0,5.2565,5.2546,5.2542,5.2453,5.2428,5.2365,5.2311,5.2293,5.226,5.2252,5.2162,5.2145,5.2085,5.2037,5.2023,5.2029,5.1988,5.1914,5.1916,5.1917,5.2,5.2008,5.2015,0,0,0,0,0,5.2572,5.257,5.2542,5.2526,5.2422,5.2366,5.2351,5.2284,5.2262,5.2256,5.2197,5.2148,5.2039,5.2034,5.2017,5.2021,5.1913,5.1915,5.1917,5.1997,5.2007,5.2015,0,0,0,0,0,0,5.266,5.2557,5.2525,5.2495,5.244,5.2349,5.234,5.2297,5.2245,5.224,5.2156,5.2137,5.2103,5.2058,5.2054,5.2005,5.197,5.1969,5.2036,5.2044,5.2052,5.2063,5.1984,0,0,0,0,0,5.2676,5.2641,5.2553,5.2534,5.2509,5.243,5.2402,5.2356,5.2295,5.227,5.2207,5.2148,5.21,5.207,5.2021,5.1994,5.1972,5.1988,5.1996,5.2003,5.2002,5.1985,5.1991,5.1925,5.1925,5.1925,0,0,5.2708,5.2648,5.263,5.255,5.2502,5.2466,5.241,5.2374,5.2346,5.2263,5.222,5.2173,5.2101,5.2067,5.2048,5.2028,5.2016,5.2006,5.2012,5.2007,5.1988,5.1994,5.1999,5.1927,5.1926,5.1926,0,0,5.2748,5.27,5.268,5.2634,5.2563,5.2511,5.2507,5.2422,5.2388,5.2345,5.2283,5.2247,5.2166,5.2118,5.2082,5.2107,5.206,5.2093,5.2132,5.2116,5.2121,5.2126,5.2134,5.2138,5.2094,5.2094,5.2094,0,5.2796,5.2741,5.2674,5.2642,5.2608,5.2536,5.2514,5.2472,5.2388,5.2365,5.2344,5.2243,5.2189,5.2143,5.2149,5.2123,5.2114,5.2102,5.2127,5.213,5.2133,5.214,5.2143,5.2098,5.2098,5.2097,5.2097,0,5.2804,5.2767,5.2758,5.2683,5.2648,5.2621,5.2548,5.252,5.2478,5.2427,5.2384,5.2318,5.2254,5.224,5.2196,5.2187,5.2177,5.2143,5.2105,5.2145,5.215,5.2152,5.2105,5.2103,5.2102,5.2101,0,0,5.2892,5.2782,5.278,5.2745,5.2663,5.2632,5.2601,5.2542,5.252,5.2465,5.2437,5.2372,5.234,5.23,5.2251,5.2237,5.2261,5.2204,5.2201,5.2216,5.2246,5.2271,5.2276,5.223,5.2231,5.2231,5.2252,0,5.2919,5.2863,5.2802,5.2767,5.2731,5.2663,5.2637,5.2583,5.2536,5.2497,5.2443,5.2398,5.2361,5.2336,5.232,5.2262,5.2265,5.2259,5.2201,5.22,5.222,5.2278,5.2304,5.2327,5.2253,5.2254,5.2254,0,5.2942,5.2893,5.2856,5.2778,5.2761,5.2739,5.268,5.2645,5.2582,5.2548,5.2506,5.2454,5.2417,5.2386,5.2334,5.2331,5.2304,5.2272,5.2271,5.2261,5.2228,5.2269,5.2333,5.2336,5.2256,5.2256,5.2256,0,5.3009,5.2935,5.2902,5.2874,5.2784,5.2769,5.273,5.2667,5.2636,5.2584,5.2563,5.2507,5.2475,5.2432,5.2367,5.235,5.2321,5.2284,5.229,5.2292,5.2285,5.2286,5.2345,5.2271,5.2271,5.2271,5.2271,0,5.3044,5.3023,5.2932,5.2912,5.2886,5.2816,5.2792,5.2747,5.2692,5.266,5.2598,5.2569,5.2485,5.2446,5.2394,5.2358,5.2345,5.2315,5.2301,5.232,5.2324,5.2299,5.2296,5.2271,5.2271,5.2271,5.2271,0,5.3114,5.3052,5.3013,5.2931,5.291,5.2895,5.2824,5.2801,5.2752,5.2713,5.27,5.2621,5.2572,5.2503,5.2432,5.2398,5.2369,5.2347,5.2391,5.2382,5.2392,5.2392,5.2436,5.2438,5.2365,5.2365,5.2366,0,5.314,5.3123,5.3041,5.3017,5.2981,5.2943,5.2912,5.2842,5.2812,5.2741,5.2726,5.2674,5.2627,5.2553,5.2487,5.2433,5.2409,5.2429,5.24,5.242,5.2408,5.241,5.2407,5.2435,5.2436,5.2437,5.2437,0,5.3193,5.3163,5.3122,5.3071,5.3036,5.2991,5.2943,5.2926,5.2846,5.2815,5.2766,5.2731,5.2661,5.2609,5.2546,5.2504,5.2457,5.2448,5.2446,5.2464,5.2489,5.2475,5.2408,5.2446,5.2445,5.2445,5.2444,5.2444,5.324,5.3222,5.3162,5.3118,5.3076,5.3033,5.3008,5.2957,5.2916,5.2855,5.2816,5.2769,5.2707,5.2619,5.2579,5.254,5.2521,5.2519,5.2518,5.2518,5.2524,5.2498,5.2528,5.2528,5.2528,5.2527,5.2527,0,5.3288,5.3247,5.3208,5.3145,5.311,5.3073,5.3018,5.2991,5.2952,5.2899,5.2856,5.28,5.275,5.2683,5.2627,5.2609,5.2586,5.2596,5.2596,5.2587,5.2545,5.2552,5.2616,5.2616,5.2616,5.2616,5.2616,5.2616,5.3309,5.3277,5.3241,5.3187,5.3145,5.31,5.3073,5.3032,5.299,5.2932,5.2891,5.2848,5.2789,5.2729,5.2681,5.2663,5.2644,5.2662,5.2636,5.2598,5.259,5.2582,5.2588,5.2658,5.2659,5.2681,5.2681,5.2681]}]]